Tracking 19176 objects as of 27-May-2018
HD Live streaming from Space Station
objects crossing your sky now

FENGYUN 1C DEB

Track FENGYUN 1C DEB now!
10-day predictions


NORAD ID: 29896
Int'l Code: 1999-025GS
Perigee: 851.4 km
Apogee: 1,213.9 km
Inclination: 99.5 °
Period: 105.7 minutes
Semi major axis: 7403 km
RCS: 0.0374 m2 (small)
Launch date: May 10, 1999
Source: People's Republic of China (PRC)
Launch site: Taiyaun Space Center, China (TSC)

Note: This is SATELLITE DEBRIS
aabbcc
Your satellite tracking list
Your tracking list is empty




NASA's NSSDC Master Catalog

Two Line Element Set (TLE):
1 29896U 99025GS  18146.70773034 +.00000023 +00000-0 +72143-4 0  9996
2 29896 099.5412 063.7297 0244853 320.3202 100.5580 13.62805023564675
Source of the keplerian elements: AFSPC